Weather reports worldwide

Advertisment
Rostherne No 2, United Kingdom (3351): temperature & dewpoint: 17.02.2019 14:00:00 - 23.02.2019 14:00:00 (GMT)Rostherne No 2, United Kingdom (3351): wind speed & gusts: 17.02.2019 14:00:00 - 23.02.2019 14:00:00 (GMT)Rostherne No 2, United Kingdom (3351): wind direction: 17.02.2019 14:00:00 - 23.02.2019 14:00:00 (GMT)Rostherne No 2, United Kingdom (3351): reduced air pressure: 17.02.2019 14:00:00 - 23.02.2019 14:00:00 (GMT)Rostherne No 2, United Kingdom (3351): visibility: 17.02.2019 14:00:00 - 23.02.2019 14:00:00 (GMT)Rostherne No 2, United Kingdom (3351): sunshine duration: 17.02.2019 14:00:00 - 23.02.2019 14:00:00 (GMT)Rostherne No 2, United Kingdom (3351): precipitation: 17.02.2019 14:00:00 - 23.02.2019 14:00:00 (GMT)
Date & Time tt [°C] td [°C] ff [km/h] ff [kn] fx [km/h] fx [kn] dd ppp [hPa] vv [km] sd [min] rr [mm]
23.02.2019 14:00:00 15,4 7,8 16 9 - - S 1029,9 14 60 -
23.02.2019 13:00:00 13,9 7,8 24 13 - - SSE 1030,1 8 60 0,0
23.02.2019 12:00:00 13,2 7,1 21 11 - - S 1031,0 8 60 0,0
23.02.2019 11:00:00 12,0 5,9 21 11 - - S 1031,3 9 60 0,0
23.02.2019 10:00:00 11,1 6,0 16 9 - - S 1031,1 8 60 0,0
23.02.2019 09:00:00 9,2 5,7 5 3 - - S 1031,5 7 60 0,0
23.02.2019 08:00:00 6,9 4,4 16 9 - - SSE 1031,5 6 0 0,0
23.02.2019 07:00:00 7,1 3,7 21 11 - - SSE 1031,2 8 0 0,0
23.02.2019 06:00:00 7,7 3,2 15 8 - - S 1031,2 11 0 0,0
23.02.2019 05:00:00 5,3 2,4 9 5 - - SE 1031,6 9 0 0,0
23.02.2019 04:00:00 5,7 3,1 8 4 - - SSE 1031,7 10 0 0,0
23.02.2019 03:00:00 6,9 3,6 13 7 - - SSE 1031,3 13 0 0,0
23.02.2019 02:00:00 5,0 2,7 11 6 - - SE 1031,6 13 0 0,0
23.02.2019 01:00:00 6,6 3,3 13 7 - - SSE 1031,9 14 0 0,0
23.02.2019 00:00:00 7,5 4,2 13 7 - - SSE 1032,1 17 - 0,0
22.02.2019 23:00:00 8,8 4,7 15 8 - - SSE 1032,0 15 0 0,0
22.02.2019 22:00:00 9,6 5,1 18 10 - - SSE 1032,3 16 0 0,0
22.02.2019 21:00:00 10,1 4,9 21 11 - - SSE 1032,5 20 0 0,0
22.02.2019 20:00:00 10,3 5,0 21 11 - - SSE 1032,7 23 0 0,0
22.02.2019 19:00:00 9,6 5,2 8 4 - - SE 1033,1 26 0 0,0
22.02.2019 18:00:00 10,0 5,4 13 7 - - SE 1032,4 23 0 0,0
22.02.2019 17:00:00 13,3 5,4 22 12 - - S 1032,3 30 0 0,0
22.02.2019 16:00:00 13,6 6,2 11 6 - - SSE 1032,2 26 48 0,0
22.02.2019 15:00:00 15,2 7,4 13 7 - - S 1032,8 25 60 0,0
22.02.2019 14:00:00 14,9 8,1 15 8 - - S 1033,1 15 60 0,0
22.02.2019 13:00:00 14,1 7,0 16 9 - - S 1033,5 15 60 0,0
22.02.2019 12:00:00 13,6 7,8 16 9 - - S 1033,5 19 54 0,0
22.02.2019 11:00:00 11,2 6,6 21 11 - - SSE 1033,8 29 24 0,0
22.02.2019 10:00:00 10,9 6,1 8 4 - - S 1033,9 25 30 0,0
22.02.2019 09:00:00 8,9 6,4 9 5 - - S 1033,1 20 0 0,0
22.02.2019 08:00:00 6,4 6,0 13 7 - - SSE 1032,7 8 0 0,0
22.02.2019 07:00:00 5,2 4,8 8 4 - - SE 1031,9 6 0 0,0
22.02.2019 06:00:00 3,9 3,6 11 6 - - SSE 1031,5 5 0 0,0
22.02.2019 05:00:00 3,6 3,3 9 5 - - SSE 1031,2 2,2 0 0,2
22.02.2019 04:00:00 5,1 4,7 2 1 - - NNE 1031,1 6 0 0,0
22.02.2019 03:00:00 6,2 5,7 9 5 - - ESE 1030,9 5 0 0,0
22.02.2019 02:00:00 6,6 5,9 5 3 - - ESE 1030,9 6 0 0,0
22.02.2019 01:00:00 8,1 7,3 8 4 - - S 1030,4 11 0 0,0
22.02.2019 00:00:00 7,1 6,5 11 6 - - SSE 1029,7 9 - 0,0
21.02.2019 23:00:00 6,1 5,6 9 5 - - SE 1029,5 6 0 0,0
21.02.2019 22:00:00 6,9 6,5 8 4 - - SE 1028,9 10 0 0,0
21.02.2019 21:00:00 6,4 5,6 5 3 - - SE 1028,4 8 0 0,0
21.02.2019 20:00:00 7,7 6,3 5 3 - - SE 1027,7 12 0 0,0
21.02.2019 19:00:00 9,3 6,9 5 3 - - SSE 1026,9 18 0 0,0
21.02.2019 18:00:00 10,9 7,1 4 2 - - S 1026,2 24 0 0,0
21.02.2019 17:00:00 13,5 7,6 8 4 - - SSW 1025,3 30 36 0,0
21.02.2019 16:00:00 14,8 8,7 11 6 - - SSW 1025,0 25 60 0,0
21.02.2019 15:00:00 14,9 9,4 11 6 - - SSW 1024,6 24 54 0,0
21.02.2019 14:00:00 14,4 9,7 13 7 - - S 1024,4 30 60 0,0
21.02.2019 13:00:00 14,4 9,5 13 7 - - SW 1024,0 24 54 0,0
21.02.2019 12:00:00 13,4 9,6 11 6 - - S 1023,8 30 0 0,0
21.02.2019 11:00:00 13,0 9,6 13 7 - - SSW 1023,4 35 12 0,0
21.02.2019 10:00:00 12,3 10,2 11 6 - - S 1022,6 35 6 0,0
21.02.2019 09:00:00 10,8 9,2 11 6 - - S 1022,0 40 12 0,0
21.02.2019 08:00:00 10,6 9,0 13 7 - - S 1021,4 50 0 0,0
21.02.2019 07:00:00 10,4 8,7 9 5 - - S 1020,6 35 0 0,0
21.02.2019 06:00:00 9,9 8,3 11 6 - - S 1019,7 26 0 0,0
21.02.2019 05:00:00 9,8 8,0 15 8 - - S 1019,2 25 0 0,0
21.02.2019 04:00:00 9,8 8,3 15 8 - - S 1019,0 22 0 0,2
21.02.2019 03:00:00 9,7 8,1 15 8 - - S 1019,0 4,8 0 0,0
21.02.2019 02:00:00 10,2 7,8 15 8 - - S 1018,8 23 0 0,0
21.02.2019 01:00:00 10,1 7,8 16 9 - - S 1018,6 26 0 0,0
21.02.2019 00:00:00 10,0 7,7 15 8 - - S 1018,3 25 - 0,0
20.02.2019 23:00:00 9,8 7,6 16 9 - - S 1017,7 28 0 0,0
20.02.2019 22:00:00 10,3 7,3 13 7 - - S 1017,1 30 0 0,0
20.02.2019 21:00:00 10,1 7,1 11 6 - - S 1017,2 26 0 0,0
20.02.2019 20:00:00 10,1 7,2 13 7 - - SSW 1016,7 23 0 0,0
20.02.2019 19:00:00 10,3 7,2 13 7 - - S 1016,8 25 0 0,0
20.02.2019 18:00:00 10,4 7,4 13 7 - - S 1016,1 24 0 0,0
20.02.2019 17:00:00 10,4 7,3 16 9 - - S 1015,5 29 0 0,0
20.02.2019 16:00:00 10,0 7,7 16 9 - - S 1015,7 19 0 0,6
20.02.2019 15:00:00 9,9 7,5 15 8 - - SSW 1015,8 14 0 -
20.02.2019 14:00:00 10,6 6,8 16 9 - - SSW 1015,7 12 0 -
20.02.2019 13:00:00 10,9 7,2 15 8 - - S 1015,5 18 0 0,0
20.02.2019 12:00:00 10,3 6,7 15 8 - - S 1015,6 22 0 0,0
20.02.2019 11:00:00 9,7 6,5 15 8 - - S 1015,5 22 0 0,0
20.02.2019 10:00:00 9,2 6,1 16 9 - - S 1015,1 26 0 0,0
20.02.2019 09:00:00 9,2 6,0 16 9 - - S 1014,6 23 0 0,0
20.02.2019 08:00:00 8,7 5,9 13 7 - - S 1014,1 17 0 0,0
20.02.2019 07:00:00 8,3 6,2 15 8 - - S 1013,3 29 0 0,0
20.02.2019 06:00:00 8,5 6,0 16 9 - - S 1013,3 35 0 0,0
20.02.2019 05:00:00 8,1 5,9 13 7 - - S 1013,1 30 0 0,0
20.02.2019 04:00:00 7,9 5,6 16 9 - - S 1013,1 30 0 0,0
20.02.2019 03:00:00 7,7 5,6 16 9 - - S 1013,3 27 0 0,0
20.02.2019 02:00:00 7,5 5,4 16 9 - - S 1013,7 22 0 0,0
20.02.2019 01:00:00 7,6 5,3 18 10 - - S 1013,7 23 0 0,2
20.02.2019 00:00:00 7,3 5,5 18 10 - - S 1013,6 20 - 0,2
19.02.2019 23:00:00 7,0 5,3 18 10 - - S 1013,9 19 0 0,4
19.02.2019 22:00:00 7,4 5,1 15 8 - - S 1014,2 21 0 0,2
19.02.2019 21:00:00 7,7 4,8 18 10 - - S 1014,3 18 0 0,2
19.02.2019 20:00:00 7,9 4,6 18 10 - - S 1014,5 19 0 0,0
19.02.2019 19:00:00 8,1 4,6 15 8 - - S 1014,7 23 0 0,0
19.02.2019 18:00:00 8,5 4,1 13 7 - - S 1014,6 50 0 0,0
19.02.2019 17:00:00 8,8 3,5 11 6 - - SSW 1014,8 22 0 0,0
19.02.2019 16:00:00 9,0 3,2 11 6 - - SSW 1015,2 30 0 0,0
19.02.2019 15:00:00 9,3 3,2 15 8 - - SW 1015,4 40 0 0,0
19.02.2019 14:00:00 9,0 3,5 15 8 - - SW 1015,9 45 0 0,0
19.02.2019 13:00:00 8,7 4,0 11 6 - - WSW 1016,2 40 0 0,0
19.02.2019 12:00:00 8,7 3,4 13 7 - - SW 1016,3 35 0 0,0
19.02.2019 11:00:00 7,6 4,0 9 5 - - SSW 1016,3 24 0 0,0
19.02.2019 10:00:00 6,7 3,3 11 6 - - SSW 1016,1 30 0 0,0
19.02.2019 09:00:00 6,1 3,0 9 5 - - WSW 1015,6 19 0 0,0
19.02.2019 08:00:00 6,4 3,3 8 4 - - SW 1015,4 26 0 0,0
19.02.2019 07:00:00 6,9 4,1 8 4 - - SW 1014,8 28 0 0,0
19.02.2019 06:00:00 7,3 4,3 11 6 - - WSW 1014,6 28 0 0,0
19.02.2019 05:00:00 7,5 4,6 9 5 - - WSW 1014,1 30 0 0,0
19.02.2019 04:00:00 7,3 5,0 11 6 - - W 1013,9 22 0 0,0
19.02.2019 03:00:00 7,5 5,0 13 7 - - W 1013,7 11 0 0,0
19.02.2019 02:00:00 7,7 4,9 11 6 - - WSW 1013,4 29 0 0,0
19.02.2019 01:00:00 8,1 4,5 16 9 - - W 1012,7 28 0 0,0
19.02.2019 00:00:00 8,0 4,3 11 6 - - SW 1012,3 30 - 0,0
18.02.2019 23:00:00 8,1 4,2 11 6 - - SW 1012,0 30 0 0,0
18.02.2019 22:00:00 8,1 4,0 16 9 - - WSW 1011,6 22 0 0,0
18.02.2019 21:00:00 7,9 3,9 13 7 - - SW 1011,4 23 0 0,0
18.02.2019 20:00:00 7,8 3,6 15 8 - - SW 1011,2 26 0 0,0
18.02.2019 19:00:00 8,0 3,2 13 7 - - WSW 1011,3 23 0 0,0
18.02.2019 18:00:00 8,3 3,1 15 8 - - WSW 1010,8 19 0 0,0
18.02.2019 17:00:00 9,0 3,2 18 10 - - WSW 1010,5 23 0 0,0
18.02.2019 16:00:00 9,3 3,1 16 9 46 25 WSW 1010,3 30 0 0,0
18.02.2019 15:00:00 9,5 2,7 21 11 - - WSW 1009,9 28 6 0,0
18.02.2019 14:00:00 10,3 3,1 13 7 - - WSW 1010,0 30 12 0,0
18.02.2019 13:00:00 10,4 3,3 16 9 - - SW 1010,2 35 18 0,0
18.02.2019 12:00:00 10,4 4,7 15 8 - - SW 1010,7 30 18 0,0
18.02.2019 11:00:00 9,3 5,5 15 8 - - SSW 1010,6 20 0 0,0
18.02.2019 10:00:00 8,6 4,8 16 9 - - SSW 1010,6 19 0 0,0
18.02.2019 09:00:00 8,4 5,0 21 11 - - S 1010,5 18 0 0,0
18.02.2019 08:00:00 7,9 5,1 16 9 - - S 1010,4 17 0 0,0
18.02.2019 07:00:00 7,7 5,0 21 11 - - S 1010,2 15 0 0,0
18.02.2019 06:00:00 7,8 5,0 16 9 - - S 1010,2 15 0 0,0
18.02.2019 05:00:00 7,8 5,3 18 10 - - S 1010,5 15 0 0,0
18.02.2019 04:00:00 7,5 5,5 15 8 - - S 1010,6 13 0 0,2
18.02.2019 03:00:00 7,8 5,4 13 7 - - S 1010,9 14 0 0,0
18.02.2019 02:00:00 7,9 5,0 11 6 - - S 1011,1 16 0 0,0
18.02.2019 01:00:00 8,1 4,6 16 9 - - S 1011,2 18 0 0,0
18.02.2019 00:00:00 8,8 4,7 15 8 - - S 1011,0 18 - 0,0
17.02.2019 23:00:00 9,3 5,1 22 12 - - S 1010,7 19 0 0,0
17.02.2019 22:00:00 9,2 3,7 21 11 - - S 1010,7 21 0 0,0
17.02.2019 21:00:00 8,4 3,3 15 8 - - S 1011,0 23 0 0,0
17.02.2019 20:00:00 8,5 2,9 13 7 - - S 1010,9 25 0 0,0
17.02.2019 19:00:00 9,4 3,5 16 9 - - S 1010,7 22 0 0,0
17.02.2019 18:00:00 9,8 4,8 9 5 - - S 1010,1 24 0 0,0
17.02.2019 17:00:00 11,1 5,2 13 7 - - S 1009,8 27 12 0,0
17.02.2019 16:00:00 12,4 5,3 18 10 - - SSW 1009,5 28 48 0,0
17.02.2019 15:00:00 12,3 7,3 24 13 - - S 1009,4 20 24 0,0
17.02.2019 14:00:00 11,4 7,1 13 7 - - SSW 1009,7 19 0 0,0

tt = temperature
td = dewpoint
ff = wind speed
fx = gusts
dd = wind direction
ppp = reduced air pressure
vv = visibility
sd = sunshine duration
rr = precipitation

Next stations